Flag for Turkey Weather past 2 weeks in Bodrum, Turkey

Now
60 °F

Passing clouds.


Feels Like: 60 °F
Forecast: 56 / 60 °F
Wind: 7 mph from South

Location: Bodrum

Current Time: Mar 31, 2015 at 2:04:09 AM

Latest Report: Mar 31, 2015 at 12:00 AM


Visibility: 13 mi

Pressure: 29.86 "Hg

Humidity: 71%

Dew point: 51 °F

Location of BodrumLocation

Historic Weather in Bodrum — Graph

°F

Bodrum temperature yesterday

Maximum temperature yesterday: 66 °F (at 3:00 PM)
Minimum temperature yesterday: 52 °F (at 6:00 AM)
Average temperature yesterday: 60 °F

Past Weeks' High & Low Weather Summary

 TemperatureHumidityPressure
High69 °F (Mar 24, 3:00 PM)96% (Mar 29, 10:00 AM)30.27 "Hg (Mar 29, 10:00 AM)
Low43 °F (Mar 21, 5:00 AM)35% (Mar 19, 4:00 PM)29.65 "Hg (Mar 28, 8:00 AM)
Average58 °F63%30.00 "Hg
* Reported Mar 15 11:00 PM — Midnight between Mar 30 and Mar 31, Bodrum, Weather by CustomWeather, © 2015

Note: Actual official high and low records may vary slightly from our data, if they occured in-between our weather recording intervals... More about our weather records

Advertising

Bodrum weather history for previous 24 hours

 ConditionsComfort  
Time TempWeatherWind HumidityBarometerVisibility
12:00 AM
Tue, Mar 31
60 °FPassing clouds.7 mph71%29.86 "Hg12 mi
9:00 PM
Mon, Mar 30
61 °FPassing clouds.9 mph76%29.85 "Hg12 mi
8:00 PM61 °FPassing clouds.9 mph76%29.85 "Hg12 mi
7:00 PM61 °FSunny.9 mph77%29.85 "Hg12 mi
6:00 PM63 °FPartly sunny.8 mph72%29.85 "Hg12 mi
5:00 PM63 °FPassing clouds.7 mph70%29.85 "Hg12 mi
4:00 PM64 °FScattered clouds.8 mph65%29.88 "Hg12 mi
3:00 PM66 °FPassing clouds.6 mph61%29.88 "Hg12 mi
2:00 PM65 °FPassing clouds.7 mph61%29.91 "Hg12 mi
1:00 PM64 °FPassing clouds.5 mph65%29.91 "Hg12 mi
12:00 PM63 °FScattered clouds.5 mph69%29.92 "Hg12 mi
11:00 AM60 °FScattered clouds.3 mph75%29.91 "Hg12 mi
10:00 AM59 °FScattered clouds.1 mph78%29.91 "Hg12 mi
9:00 AM56 °FScattered clouds.1 mph88%29.90 "Hg12 mi
6:00 AM52 °FPassing clouds.1 mph91%29.87 "Hg12 mi
3:00 AM52 °FPassing clouds.1 mph91%29.87 "Hg12 mi
Weather by CustomWeather, © 2015

See weather overviewHow to use our weather pages